Weather in Aslanbek-Sheripovo

Russia / Chechen Republic     42°50′21″N   45°44′57″E
temp.,
°C
wind,
m/s
gust,
m/s
humid.,
%
clouds,
%
prec.,
mm/h
press.,
hPa
HPBL,
m
6 december, mon
mon600:000s32635 0.0 101930
03:00−1s33612 0.0 102037
06:00−1s33610 0.0 102139
09:00+3sse22582 0.0 102081
12:00+7se125419 0.0 1017415
15:00+6sse12698 0.0 101892
18:00+2s347228 0.0 102352
21:00+2s45708 0.0 102364
7 december, tue
tue700:00+1s45692 0.0 102369
03:00+1s45670 0.0 102361
06:00+1sse45640 0.0 102361
09:00+4sse345911 0.0 102181
12:00+9sse12510 0.0 1017286
15:00+8sse23620 0.0 101799
18:00+3sse46550 0.0 101977
21:00+4s57500 0.0 101790
8 december, wed
wed800:00+4s68480 0.0 1016102
03:00+4s68471 0.0 1015101
06:00+4s68470 0.0 101497
09:00+7s57450 0.0 1012115
12:00+11s464347 0.0 1010280
15:00+9sse46550 0.0 1010140
18:00+5s46560 0.0 101279
21:00+5s45560 0.0 101263
9 december, thu
thu900:00+4s445721 0.0 101149
03:00+5s446591 0.1 101061
06:00+3s217119 0.0 101225
09:00+4wnw1171100 0.0 1014117
12:00+4nnw2363100 0.0 1014569
15:00+2wnw1290100 1.2 1018295
18:00+2nnw2296100 0.7 1020266
21:00+1wsw1194100 1.1 1022239
10 december, fri
fri1000:00+1ssw119195 0.1 1023130
03:000s228283 0.1 102485
06:00−1s227447 0.0 102532
09:00+2sse22633 0.0 102399
12:00+6ene12603 0.0 1020673
15:00+4nnw117840 0.0 1022287
18:000s227825 0.0 1026142
21:00−1s33681 0.0 102754